Regional Weather Roundup
Issued by NWS

Home | Current Version | Previous Version | Text Only | Print | Product List | Glossary On
Versions: 1 2 3 4 5 6 7 8 9 10 11 12 13 14 15 16 17 18 19 20 21 22 23 24 25 26 27 28 29 30 31 32 33 34 35 36 37 38 39 40 41 42 43 44 45 46 47 48 49 50
000
ASUS43 KDTX 200810
RWRMI
MICHIGAN HOURLY REGIONAL WEATHER ROUNDUP
NATIONAL WEATHER SERVICE DETROIT/PONTIAC MI
400 AM EDT SUN AUG 20 2017

NOTE: "FAIR" INDICATES FEW OR NO CLOUDS BELOW 12,000 FEET WITH NO
SIGNIFICANT WEATHER AND/OR OBSTRUCTION TO VISIBILITY.

MIZ047>049-052>055-059>063-066>070-074>076-081>083-200900-
SOUTHEAST LOWER MICHIGAN

CITY           SKY/WX    TMP DP  RH WIND       PRES   REMARKS
ADRIAN         CLEAR     57  55  93 CALM      30.05S
ALMA           CLEAR     58  57  97 CALM      30.03S FOG
ANN ARBOR      FOG       54  54 100 CALM      30.04R VSB 3/4
BAD AXE        CLEAR     59  57  92 CALM      30.01S
CARO           CLEAR     56  55  96 CALM      30.01R FOG
DETROIT CITY   CLEAR     65  59  81 W3        30.03S
DETROIT        CLEAR     64  60  87 CALM      30.04S
FLINT          CLEAR     56  55  97 CALM      30.03R
GROSSE ILE     CLEAR     63  59  87 CALM      30.03R
HILLSDALE      CLEAR     55  54  94 CALM      30.05S
HOWELL         CLEAR     58  56  95 CALM      30.04S

CITY           SKY/WX    TMP DP  RH WIND       PRES   REMARKS
JACKSON        CLEAR     58  56  93 S3        30.05R
LAMBERTVILLE   CLEAR     58  57  97 CALM      30.03S FOG
LANSING        CLEAR     60  57  89 CALM      30.04R
LAPEER         FAIR      56  55  97 CALM      30.03S FOG
MASON          CLEAR     56  55  94 S3        30.04S FOG
MONROE         CLEAR     57  56  98 CALM      30.03S FOG
MT. CLEMENS    CLEAR     63  58  84 W3        30.02R
PONTIAC        CLEAR     61  58  90 CALM      30.03R
PORT HOPE        N/A     66  62  87 SW6       29.98R
PORT HURON       N/A     57  55  94 CALM      30.03R FOG
TRI CITIES     CLEAR     62  61  96 SW7       30.02R
MIDLAND        FAIR      57  57 100 CALM      30.00S FOG
TROY           CLEAR     64  59  82 CALM      30.05S
SAGINAW HB     CLEAR     61  59  94 SW5       30.01S
$$
MIZ043>046-050>051-056>058-064>065-071>073-077>080-200900-
SOUTHWEST LOWER MICHIGAN

CITY           SKY/WX    TMP DP  RH WIND       PRES   REMARKS
BATTLE CREEK   CLEAR     58  56  93 CALM      30.05R
BENTON HARBOR  CLEAR     56  54  93 E3        30.02S
BIG RAPIDS     CLEAR     57  56  94 CALM      30.02R FOG
COLDWATER      CLEAR     56  56 100 CALM      30.05R
FREMONT        FOG       58  58 100 CALM      30.01S VSB 1/4
HOLLAND        CLEAR     60  57  89 CALM      30.03R
GRAND RAPIDS   CLEAR     58  58 100 S3        30.03R
IONIA          FAIR      56  55  97 CALM      30.03R
KALAMAZOO      CLEAR     57  54  89 CALM      30.04S FOG
LUDINGTON      CLEAR     67  64  88 SW7       29.99S
MARSHALL       CLEAR     53  53  98 CALM      30.04S FOG
MOUNT PLEASANT CLEAR     62  58  86 CALM      30.01S
MUSKEGON         N/A     63  61  93 CALM      30.02R
SOUTH HAVEN    CLEAR     58  57  96 CALM      30.02S
$$
MIZ016>042-200900-
NORTHERN LOWER MICHIGAN

CITY           SKY/WX    TMP DP  RH WIND       PRES   REMARKS
ALPENA         CLEAR     58  58 100 CALM      29.96R
BEAVER ISLAND  CLEAR     65  65  99 SW5       29.94R
BELLAIRE       CLEAR     64  61  90 SW3       29.97S
CADILLAC         N/A     60  57  90 CALM      30.02R FOG
CHARLEVOIX     CLEAR     65  65 100 S3        29.98R
FRANKFORT      CLEAR     69  68  96 CALM      29.98S
GAYLORD        CLEAR     62  59  90 SW9       29.99R
GRAYLING       CLEAR     62  58  87 W5        30.00S
HARBOR SPRINGS CLEAR     64  63  95 CALM      29.96R
HOUGHTON LAKE  CLEAR     64  59  83 SW7       30.01S
MANISTEE       CLEAR     57  57 100 E3        29.99R
OSCODA         MOCLDY    65  61  88 SW6       29.97R
PELLSTON       CLEAR     60  58  92 CALM      29.95R
ROGERS CITY    CLEAR     64  60  86 SW8       29.96R
TRAVERSE CITY  PTCLDY    66  61  84 SW7       29.96R
$$
MIZ007>008-015-200900-
EASTERN UPPER MICHIGAN

CITY           SKY/WX    TMP DP  RH WIND       PRES   REMARKS
KINROSS        CLEAR     59  59 100 CALM      29.94S FOG
MACKINAC ISLAN CLEAR     63  63 100 SW7       29.93S
NEWBERRY       FOG       58  57  97 SW3       29.94R VSB 1/2
S. S. MARIE    FOG       58  57  97 E3        29.93S VSB 1/2
MUNISING         N/A     64  64 100 S8        29.91S
$$
MIZ004>006-011>014-085-200900-
CENTRAL UPPER MICHIGAN

CITY           SKY/WX    TMP DP  RH WIND       PRES   REMARKS
MANISTIQUE     HAZE      54  49  81 CALM      29.94R VSB 1/4
ESCANABA       CLEAR     59  59 100 W5        29.93F
MENOMINEE      CLEAR     63  60  90 W3        29.96S
SAWYER-GWINN   CLEAR     56  55  97 SW3       29.94S
$$
MIZ001>003-009>011-084-200900-
WESTERN UPPER MICHIGAN

CITY           SKY/WX    TMP DP  RH WIND       PRES   REMARKS
IRON MOUNTAIN  CLEAR     58  54  86 CALM      29.94S
HOUGHTON         N/A     66  58  75 W10       29.89S
COPPER HARBOR    N/A     69  58  67 W7        29.86S
IRONWOOD       CLEAR     64  59  83 SW7       29.92F
$$

ABBREVIATIONS USED IN REMARKS
   TC - TEMPERATURE IN CELSIUS
  WCI - WIND CHILL INDEX
   HX - HEAT INDEX
  VSB - VISIBILITY




USA.gov is the U.S. government's official web portal to all federal, state and local government web resources and services.